FW1302 Weather Reports


time (UTC)temp
C
wind
direction
speed
KPH
gust
KPH
rain 1hr
cm
rain 24hr
cm
rain mn
cm
humidity
%
barometer
mb
20260506194316 17 222 22.5 30.6 0.00 0.00 0.00 69 1030.8
20260506193316 17 224 16.1 22.5 0.00 0.00 0.00 71 1030.8
20260506192414 17 224 22.5 30.6 0.00 0.00 0.00 71 1030.6
20260506191416 17 227 20.9 29.0 0.00 0.00 0.00 72 1030.8
20260506190514 17 225 17.7 20.9 0.00 0.00 0.00 72 1030.8
20260506184516 17 229 22.5 29.0 0.00 0.00 0.00 73 1030.8
20260506183615 16 235 19.3 29.0 0.00 0.00 0.00 73 1030.7
20260506183517 16 225 24.1 35.4 0.00 0.00 0.00 74 1030.8
20260506181516 16 213 20.9 25.7 0.00 0.00 0.00 74 1030.9
20260506180515 16 227 17.7 27.4 0.00 0.00 0.00 75 1030.7
20260506175515 16 229 20.9 30.6 0.00 0.00 0.00 75 1030.5
20260506174614 16 232 19.3 27.4 0.00 0.00 0.00 76 1030.6
20260506173616 16 224 19.3 25.7 0.00 0.00 0.00 77 1030.8
20260506172616 15 224 17.7 27.4 0.00 0.00 0.00 78 1030.8
20260506171616 15 231 19.3 29.0 0.00 0.00 0.00 79 1030.7
20260506170616 15 218 14.5 19.3 0.00 0.00 0.00 79 1030.6
20260506165616 15 229 17.7 24.1 0.00 0.00 0.00 79 1030.5
20260506165517 15 226 20.9 27.4 0.00 0.00 0.00 78 1030.4
20260506164516 15 226 17.7 25.7 0.00 0.00 0.00 80 1030.2
20260506163614 15 205 16.1 22.5 0.00 0.00 0.00 80 1030.4
20260506162617 15 223 14.5 19.3 0.00 0.00 0.00 80 1030.3
20260506161615 15 234 16.1 20.9 0.00 0.00 0.00 81 1030.1
20260506155716 14 226 16.1 24.1 0.00 0.00 0.00 80 1030.6
20260506154714 14 224 20.9 30.6 0.00 0.00 0.00 81 1030.8
20260506153715 14 225 19.3 25.7 0.00 0.00 0.00 81 1030.8
20260506152814 14 226 22.5 32.2 0.00 0.00 0.00 81 1030.8
20260506151816 14 235 17.7 24.1 0.00 0.00 0.00 81 1030.7
20260506145914 14 222 17.7 29.0 0.00 0.00 0.00 80 1030.3
20260506144915 14 225 17.7 27.4 0.00 0.00 0.00 82 1030.0
20260506143914 14 222 16.1 24.1 0.00 0.00 0.00 82 1030.0
20260506142917 14 223 9.7 14.5 0.00 0.00 0.00 82 1029.9
20260506141915 14 222 11.3 17.7 0.00 0.00 0.00 82 1029.9
20260506140916 14 210 14.5 22.5 0.00 0.00 0.00 83 1029.8
20260506133918 14 225 14.5 20.9 0.00 0.00 0.00 83 1029.7
20260506133815 14 223 11.3 14.5 0.00 0.00 0.00 83 1029.6
20260506132816 13 209 6.4 12.9 0.00 0.00 0.00 83 1029.6
20260506131817 14 216 9.7 17.7 0.00 0.00 0.00 82 1029.5
20260506130815 14 217 14.5 22.5 0.00 0.00 0.00 82 1029.6
20260506125815 14 218 14.5 19.3 0.00 0.00 0.00 82 1029.5
20260506125716 14 218 14.5 19.3 0.00 0.00 0.00 82 1029.5
20260506124716 14 218 8.0 11.3 0.00 0.00 0.00 82 1029.6
20260506123716 14 217 12.9 17.7 0.00 0.00 0.00 82 1029.6
20260506122717 14 224 11.3 14.5 0.00 0.00 0.00 81 1029.5
20260506120714 15 221 11.3 19.3 0.00 0.00 0.00 81 1029.1
20260506115718 15 224 16.1 19.3 0.00 0.00 0.00 80 1029.2
20260506114715 15 225 14.5 19.3 0.00 0.00 0.00 80 1029.0
20260506113717 15 223 8.0 11.3 0.00 0.00 0.00 80 1028.9
20260506112814 15 225 11.3 14.5 0.00 0.00 0.00 80 1028.9
20260506111815 15 225 8.0 12.9 0.00 0.00 0.00 80 1028.9
20260506105914 15 225 12.9 17.7 0.00 0.00 0.00 79 1028.6
20260506104915 15 225 11.3 14.5 0.00 0.00 0.00 78 1028.4
20260506104014 15 225 11.3 17.7 0.00 0.00 0.00 77 1028.3
20260506103016 15 225 14.5 19.3 0.00 0.00 0.00 77 1028.1
20260506102114 15 226 12.9 16.1 0.00 0.00 0.00 77 1028.1
20260506101116 15 228 11.3 16.1 0.00 0.00 0.00 77 1028.1
20260506095213 15 216 9.7 17.7 0.00 0.00 0.00 76 1028.0
20260506094215 15 225 11.3 16.1 0.00 0.00 0.00 76 1028.0
20260506093216 16 230 9.7 11.3 0.00 0.00 0.00 75 1028.1
20260506092314 16 229 12.9 17.7 0.00 0.00 0.00 75 1027.9
20260506091314 16 224 11.3 17.7 0.00 0.00 0.00 75 1027.9
20260506090414 16 225 8.0 14.5 0.00 0.00 0.00 75 1027.9
20260506085416 16 228 11.3 12.9 0.00 0.00 0.00 75 1028.0
20260506084414 16 228 12.9 17.7 0.00 0.00 0.00 75 1028.0
20260506083416 16 230 9.7 12.9 0.00 0.00 0.00 75 1028.1
20260506082514 16 225 8.0 11.3 0.00 0.00 0.00 74 1027.9
20260506081516 16 225 9.7 11.3 0.00 0.00 0.00 74 1027.8
20260506073515 16 232 11.3 14.5 0.00 0.00 0.00 74 1027.5
20260506072516 16 225 11.3 14.5 0.00 0.00 0.00 74 1027.5
20260506070616 16 225 8.0 11.3 0.00 0.00 0.00 73 1027.5
20260506061620 16 239 14.5 19.3 0.00 0.00 0.00 73 1027.2
20260506050722 16 225 14.5 17.7 0.00 0.00 0.00 74 1026.9
20260506044723 16 233 12.9 17.7 0.00 0.00 0.00 73 1026.7
20260506043721 16 226 11.3 19.3 0.00 0.00 0.00 73 1026.4
20260506042722 16 229 14.5 19.3 0.00 0.00 0.00 73 1026.4
20260506041721 16 232 12.9 19.3 0.00 0.00 0.00 73 1026.3
20260506040721 16 227 12.9 17.7 0.00 0.00 0.00 72 1026.4
20260506035723 16 225 12.9 16.1 0.00 0.00 0.00 72 1026.2
20260506034721 16 223 14.5 19.3 0.00 0.00 0.00 73 1026.1
20260506033723 16 224 11.3 16.1 0.00 0.00 0.00 73 1026.0
20260506032820 16 235 19.3 27.4 0.00 0.00 0.00 71 1025.8
20260506031823 16 225 14.5 29.0 0.00 0.00 0.00 72 1025.8
20260506030921 16 223 16.1 22.5 0.00 0.00 0.00 71 1025.7
20260506024023 16 226 16.1 24.1 0.00 0.00 0.00 70 1025.3
20260506023021 16 224 17.7 25.7 0.00 0.00 0.00 68 1025.1
20260506022022 17 228 19.3 25.7 0.00 0.00 0.00 69 1025.0
20260506020921 17 222 19.3 27.4 0.00 0.00 0.00 68 1025.0
20260506014923 17 218 19.3 27.4 0.00 0.00 0.00 68 1025.0
20260506013924 17 228 19.3 29.0 0.00 0.00 0.00 68 1025.0
20260506013021 17 224 22.5 29.0 0.00 0.00 0.00 68 1024.9
20260506012022 17 229 20.9 29.0 0.00 0.00 0.00 66 1024.7
20260506010021 17 223 17.7 25.7 0.00 0.00 0.00 67 1024.7
20260506005022 17 225 24.1 32.2 0.00 0.00 0.00 66 1024.7
20260506002022 17 213 20.9 32.2 0.00 0.00 0.00 66 1024.5
20260506001022 18 226 29.0 35.4 0.00 0.00 0.00 64 1024.6
20260506000022 18 222 25.7 33.8 0.00 0.00 0.00 65 1024.7
20260505235021 18 221 24.1 32.2 0.00 0.00 0.00 65 1024.8
20260505234921 18 225 27.4 35.4 0.00 0.00 0.00 65 1024.7
20260505233921 18 225 32.2 38.6 0.00 0.00 0.00 64 1024.9
20260505232922 18 226 25.7 32.2 0.00 0.00 0.00 65 1024.8
20260505231921 18 224 22.5 29.0 0.00 0.00 0.00 65 1024.7
20260505230922 18 221 25.7 33.8 0.00 0.00 0.00 65 1024.8
20260505230020 18 226 22.5 30.6 0.00 0.00 0.00 65 1025.0
20260505224120 18 219 29.0 33.8 0.00 0.00 0.00 66 1025.0
20260505224021 18 225 20.9 29.0 0.00 0.00 0.00 66 1025.1
20260505223120 17 222 19.3 30.6 0.00 0.00 0.00 66 1025.2
20260505222121 17 210 22.5 29.0 0.00 0.00 0.00 66 1025.2
20260505221123 17 217 24.1 33.8 0.00 0.00 0.00 66 1025.3
20260505220221 17 225 19.3 24.1 0.00 0.00 0.00 65 1025.5
20260505220120 17 234 24.1 37.0 0.00 0.00 0.00 66 1025.1
20260505214122 17 229 27.4 40.2 0.00 0.00 0.00 66 1025.5
20260505213121 17 226 25.7 37.0 0.00 0.00 0.00 65 1025.6
20260505212121 17 225 20.9 27.4 0.00 0.00 0.00 67 1025.7
20260505211122 17 230 20.9 29.0 0.00 0.00 0.00 67 1025.6
20260505210122 17 227 25.7 30.6 0.00 0.00 0.00 66 1025.9
20260505205122 17 224 22.5 27.4 0.00 0.00 0.00 65 1025.8
20260505204121 17 223 22.5 33.8 0.00 0.00 0.00 64 1026.0
20260505203120 17 226 24.1 33.8 0.00 0.00 0.00 65 1025.9
20260505202121 17 225 27.4 37.0 0.00 0.00 0.00 65 1026.2
20260505201120 17 220 17.7 24.1 0.00 0.00 0.00 67 1026.3
20260505201020 17 227 19.3 29.0 0.00 0.00 0.00 67 1026.2